Powrót do katalogu

CZ-6A DEB

AktywnySSO
NORAD 54532·DEBRIS·🇨🇳 China

Wystrzelony Nov 11, 2022 z Taiyuan Satellite Launch Center

Loading…

Następne Przeloty (najbliższe 24 godziny)

TLE

ŚwieżeSource: Space-Track

Epoka: Sep 14, 2026, 03:36 UTC

1 54532U 22151KL  26257.15065182  .00000558  00000-0  14573-3 0  9991
2 54532  98.5899 315.8333 0126777  24.3482 336.3629 14.48897549202452

Śledź CZ-6A DEB w czasie rzeczywistym z AllMySat

Download on the App Store